Year,Month,Day,Hour,Minute,Value (Times are PST for temperature in C)
2019,07,12,00,00,13.70
2019,07,12,00,01,13.70
2019,07,12,00,02,13.70
2019,07,12,00,03,13.70
2019,07,12,00,04,13.60
2019,07,12,00,05,13.60
2019,07,12,00,06,13.60
2019,07,12,00,07,13.60
2019,07,12,00,08,13.60
2019,07,12,00,09,13.50
2019,07,12,00,10,13.50
2019,07,12,00,11,13.50
2019,07,12,00,12,13.50
2019,07,12,00,13,13.50
2019,07,12,00,14,13.50
2019,07,12,00,15,13.50
2019,07,12,00,16,13.60
2019,07,12,00,17,13.60
2019,07,12,00,18,13.60
2019,07,12,00,19,13.60
2019,07,12,00,20,13.60
2019,07,12,00,21,13.70
2019,07,12,00,22,13.70
2019,07,12,00,23,13.70
2019,07,12,00,24,13.70
2019,07,12,00,25,13.70
2019,07,12,00,26,13.70
2019,07,12,00,27,13.80
2019,07,12,00,28,13.80
2019,07,12,00,29,13.80
2019,07,12,00,30,13.80
2019,07,12,00,31,13.80
2019,07,12,00,32,13.80
2019,07,12,00,33,13.80
2019,07,12,00,34,13.80
2019,07,12,00,35,13.80
2019,07,12,00,36,13.80
2019,07,12,00,37,13.70
2019,07,12,00,38,13.70
2019,07,12,00,39,13.70
2019,07,12,00,40,13.60
2019,07,12,00,41,13.60
2019,07,12,00,42,13.60
2019,07,12,00,43,13.50
2019,07,12,00,44,13.50
2019,07,12,00,45,13.40
2019,07,12,00,46,13.40
2019,07,12,00,47,13.30
2019,07,12,00,48,13.30
2019,07,12,00,49,13.30
2019,07,12,00,50,13.30
2019,07,12,00,51,13.20
2019,07,12,00,52,13.20
2019,07,12,00,53,13.20
2019,07,12,00,54,13.20
2019,07,12,00,55,13.10
2019,07,12,00,56,13.10
2019,07,12,00,57,13.10
2019,07,12,00,58,13.10
2019,07,12,00,59,13.00
2019,07,12,01,00,13.00
2019,07,12,01,01,13.00
2019,07,12,01,02,13.00
2019,07,12,01,03,13.00
2019,07,12,01,04,13.00
2019,07,12,01,05,13.00
2019,07,12,01,06,13.00
2019,07,12,01,07,13.00
2019,07,12,01,08,13.00
2019,07,12,01,09,12.90
2019,07,12,01,10,13.00
2019,07,12,01,11,12.90
2019,07,12,01,12,12.90
2019,07,12,01,13,12.90
2019,07,12,01,14,12.90
2019,07,12,01,15,12.90
2019,07,12,01,16,12.90
2019,07,12,01,17,12.90
2019,07,12,01,18,12.90
2019,07,12,01,19,12.90
2019,07,12,01,20,12.80
2019,07,12,01,21,12.80
2019,07,12,01,22,12.80
2019,07,12,01,23,12.80
2019,07,12,01,24,12.80
2019,07,12,01,25,12.80
2019,07,12,01,26,12.80
2019,07,12,01,27,12.90
2019,07,12,01,28,12.90
2019,07,12,01,29,12.90
2019,07,12,01,30,12.90
2019,07,12,01,31,12.90
2019,07,12,01,32,12.90
2019,07,12,01,33,12.90
2019,07,12,01,34,12.90
2019,07,12,01,35,12.90
2019,07,12,01,36,12.90
2019,07,12,01,37,12.90
2019,07,12,01,38,12.90
2019,07,12,01,39,12.80
2019,07,12,01,40,12.80
2019,07,12,01,41,12.80
2019,07,12,01,42,12.80
2019,07,12,01,43,12.70
2019,07,12,01,44,12.70
2019,07,12,01,45,12.70
2019,07,12,01,46,12.70
2019,07,12,01,47,12.70
2019,07,12,01,48,12.70
2019,07,12,01,49,12.60
2019,07,12,01,50,12.60
2019,07,12,01,51,12.60
2019,07,12,01,52,12.60
2019,07,12,01,53,12.60
2019,07,12,01,54,12.60
2019,07,12,01,55,12.60
2019,07,12,01,56,12.60
2019,07,12,01,57,12.60
2019,07,12,01,58,12.60
2019,07,12,01,59,12.70
2019,07,12,02,00,12.60
2019,07,12,02,01,12.70
2019,07,12,02,02,12.60
2019,07,12,02,03,12.60
2019,07,12,02,04,12.60
2019,07,12,02,05,12.60
2019,07,12,02,06,12.60
2019,07,12,02,07,12.60
2019,07,12,02,08,12.60
2019,07,12,02,09,12.60
2019,07,12,02,10,12.70
2019,07,12,02,11,12.70
2019,07,12,02,12,12.70
2019,07,12,02,13,12.70
2019,07,12,02,14,12.70
2019,07,12,02,15,12.60
2019,07,12,02,16,12.60
2019,07,12,02,17,12.60
2019,07,12,02,18,12.60
2019,07,12,02,19,12.60
2019,07,12,02,20,12.60
2019,07,12,02,21,12.60
2019,07,12,02,22,12.60
2019,07,12,02,23,12.60
2019,07,12,02,24,12.60
2019,07,12,02,25,12.70
2019,07,12,02,26,12.70
2019,07,12,02,27,12.70
2019,07,12,02,28,12.70
2019,07,12,02,29,12.70
2019,07,12,02,30,12.80
2019,07,12,02,31,12.80
2019,07,12,02,32,12.80
2019,07,12,02,33,12.80
2019,07,12,02,34,12.80
2019,07,12,02,35,12.80
2019,07,12,02,36,12.80
2019,07,12,02,37,12.80
2019,07,12,02,38,12.80
2019,07,12,02,39,12.80
2019,07,12,02,40,12.80
2019,07,12,02,41,12.80
2019,07,12,02,42,12.80
2019,07,12,02,43,12.80
2019,07,12,02,44,12.70
2019,07,12,02,45,12.70
2019,07,12,02,46,12.70
2019,07,12,02,47,12.70
2019,07,12,02,48,12.60
2019,07,12,02,49,12.60
2019,07,12,02,50,12.60
2019,07,12,02,51,12.60
2019,07,12,02,52,12.60
2019,07,12,02,53,12.50
2019,07,12,02,54,12.50
2019,07,12,02,55,12.50
2019,07,12,02,56,12.50
2019,07,12,02,57,12.40
2019,07,12,02,58,12.40
2019,07,12,02,59,12.40
2019,07,12,03,00,12.40
2019,07,12,03,01,12.40
2019,07,12,03,02,12.40
2019,07,12,03,03,12.40
2019,07,12,03,04,12.40
2019,07,12,03,05,12.40
2019,07,12,03,06,12.40
2019,07,12,03,07,12.40
2019,07,12,03,08,12.40
2019,07,12,03,09,12.40
2019,07,12,03,10,12.40
2019,07,12,03,11,12.40
2019,07,12,03,12,12.30
2019,07,12,03,13,12.30
2019,07,12,03,14,12.30
2019,07,12,03,15,12.30
2019,07,12,03,16,12.20
2019,07,12,03,17,12.20
2019,07,12,03,18,12.20
2019,07,12,03,19,12.20
2019,07,12,03,20,12.10
2019,07,12,03,21,12.10
2019,07,12,03,22,12.10
2019,07,12,03,23,12.10
2019,07,12,03,24,12.10
2019,07,12,03,25,12.00
2019,07,12,03,26,12.00
2019,07,12,03,27,11.90
2019,07,12,03,28,11.90
2019,07,12,03,29,11.90
2019,07,12,03,30,11.90
2019,07,12,03,31,11.90
2019,07,12,03,32,11.90
2019,07,12,03,33,11.90
2019,07,12,03,34,11.80
2019,07,12,03,35,11.80
2019,07,12,03,36,11.80
2019,07,12,03,37,11.80
2019,07,12,03,38,11.80
2019,07,12,03,39,11.80
2019,07,12,03,40,11.80
2019,07,12,03,41,11.70
2019,07,12,03,42,11.70
2019,07,12,03,43,11.70
2019,07,12,03,44,11.70
2019,07,12,03,45,11.70
2019,07,12,03,46,11.70
2019,07,12,03,47,11.60
2019,07,12,03,48,11.60
2019,07,12,03,49,11.60
2019,07,12,03,50,11.60
2019,07,12,03,51,11.60
2019,07,12,03,52,11.60
2019,07,12,03,53,11.60
2019,07,12,03,54,11.60
2019,07,12,03,55,11.50
2019,07,12,03,56,11.50
2019,07,12,03,57,11.50
2019,07,12,03,58,11.40
2019,07,12,03,59,11.40
2019,07,12,04,00,11.40
2019,07,12,04,01,11.40
2019,07,12,04,02,11.40
2019,07,12,04,03,11.40
2019,07,12,04,04,11.30
2019,07,12,04,05,11.30
2019,07,12,04,06,11.30
2019,07,12,04,07,11.30
2019,07,12,04,08,11.30
2019,07,12,04,09,11.30
2019,07,12,04,10,11.30
2019,07,12,04,11,11.30
2019,07,12,04,12,11.30
2019,07,12,04,13,11.30
2019,07,12,04,14,11.30
2019,07,12,04,15,11.30
2019,07,12,04,16,11.30
2019,07,12,04,17,11.30
2019,07,12,04,18,11.30
2019,07,12,04,19,11.30
2019,07,12,04,20,11.30
2019,07,12,04,21,11.30
2019,07,12,04,22,11.30
2019,07,12,04,23,11.30
2019,07,12,04,24,11.30
2019,07,12,04,25,11.30
2019,07,12,04,26,11.30
2019,07,12,04,27,11.30
2019,07,12,04,28,11.30
2019,07,12,04,29,11.30
2019,07,12,04,30,11.30
2019,07,12,04,31,11.30
2019,07,12,04,32,11.30
2019,07,12,04,33,11.30
2019,07,12,04,34,11.30
2019,07,12,04,35,11.30
2019,07,12,04,36,11.20
2019,07,12,04,37,11.20
2019,07,12,04,38,11.20
2019,07,12,04,39,11.20
2019,07,12,04,40,11.20
2019,07,12,04,41,11.20
2019,07,12,04,42,11.10
2019,07,12,04,43,11.10
2019,07,12,04,44,11.10
2019,07,12,04,45,11.10
2019,07,12,04,46,11.10
2019,07,12,04,47,11.10
2019,07,12,04,48,11.00
2019,07,12,04,49,11.00
2019,07,12,04,50,11.00
2019,07,12,04,51,11.00
2019,07,12,04,52,11.00
2019,07,12,04,53,11.00
2019,07,12,04,54,11.00
2019,07,12,04,55,11.00
2019,07,12,04,56,11.00
2019,07,12,04,57,11.00
2019,07,12,04,58,11.10
2019,07,12,04,59,11.10
2019,07,12,05,00,11.10
2019,07,12,05,01,11.10
2019,07,12,05,02,11.10
2019,07,12,05,03,11.10
2019,07,12,05,04,11.20
2019,07,12,05,05,11.20
2019,07,12,05,06,11.20
2019,07,12,05,07,11.20
2019,07,12,05,08,11.30
2019,07,12,05,09,11.30
2019,07,12,05,10,11.20
2019,07,12,05,11,11.20
2019,07,12,05,12,11.20
2019,07,12,05,13,11.20
2019,07,12,05,14,11.20
2019,07,12,05,15,11.20
2019,07,12,05,16,11.20
2019,07,12,05,17,11.20
2019,07,12,05,18,11.20
2019,07,12,05,19,11.20
2019,07,12,05,20,11.10
2019,07,12,05,21,11.10
2019,07,12,05,22,11.10
2019,07,12,05,23,11.10
2019,07,12,05,24,11.10
2019,07,12,05,25,11.10
2019,07,12,05,26,11.10
2019,07,12,05,27,11.10
2019,07,12,05,28,11.10
2019,07,12,05,29,11.10
2019,07,12,05,30,11.10
2019,07,12,05,31,11.10
2019,07,12,05,32,11.10
2019,07,12,05,33,11.10
2019,07,12,05,34,11.10
2019,07,12,05,35,11.10
2019,07,12,05,36,11.10
2019,07,12,05,37,11.10
2019,07,12,05,38,11.10
2019,07,12,05,39,11.10
2019,07,12,05,40,11.10
2019,07,12,05,41,11.10
2019,07,12,05,42,11.10
2019,07,12,05,43,11.10
2019,07,12,05,44,11.10
2019,07,12,05,45,11.10
2019,07,12,05,46,11.10
2019,07,12,05,47,11.10
2019,07,12,05,48,11.10
2019,07,12,05,49,11.10
2019,07,12,05,50,11.10
2019,07,12,05,51,11.10
2019,07,12,05,52,11.10
2019,07,12,05,53,11.10
2019,07,12,05,54,11.10
2019,07,12,05,55,11.10
2019,07,12,05,56,11.10
2019,07,12,05,57,11.10
2019,07,12,05,58,11.10
2019,07,12,05,59,11.20
2019,07,12,06,00,11.20
2019,07,12,06,01,11.20
2019,07,12,06,02,11.30
2019,07,12,06,03,11.40
2019,07,12,06,04,11.50
2019,07,12,06,05,11.60
2019,07,12,06,06,11.60
2019,07,12,06,07,11.70
2019,07,12,06,08,11.70
2019,07,12,06,09,11.70
2019,07,12,06,10,11.70
2019,07,12,06,11,11.70
2019,07,12,06,12,11.70
2019,07,12,06,13,11.70
2019,07,12,06,14,11.70
2019,07,12,06,15,11.70
2019,07,12,06,16,11.70
2019,07,12,06,17,11.70
2019,07,12,06,18,11.70
2019,07,12,06,19,11.70
2019,07,12,06,20,11.80
2019,07,12,06,21,11.80
2019,07,12,06,22,11.80
2019,07,12,06,23,11.80
2019,07,12,06,24,11.80
2019,07,12,06,25,11.80
2019,07,12,06,26,11.80
2019,07,12,06,27,11.80
2019,07,12,06,28,11.80
2019,07,12,06,29,11.80
2019,07,12,06,30,11.80
2019,07,12,06,31,11.80
2019,07,12,06,32,11.80
2019,07,12,06,33,11.80
2019,07,12,06,34,11.80
2019,07,12,06,35,11.80
2019,07,12,06,36,11.90
2019,07,12,06,37,11.90
2019,07,12,06,38,11.90
2019,07,12,06,39,11.90
2019,07,12,06,40,11.90
2019,07,12,06,41,11.90
2019,07,12,06,42,11.90
2019,07,12,06,43,11.90
2019,07,12,06,44,11.90
2019,07,12,06,45,11.90
2019,07,12,06,46,12.00
2019,07,12,06,47,12.00
2019,07,12,06,48,12.00
2019,07,12,06,49,12.10
2019,07,12,06,50,12.10
2019,07,12,06,51,12.10
2019,07,12,06,52,12.10
2019,07,12,06,53,12.10
2019,07,12,06,54,12.10
2019,07,12,06,55,12.20
2019,07,12,06,56,12.20
2019,07,12,06,57,12.20
2019,07,12,06,58,12.20
2019,07,12,06,59,12.20
2019,07,12,07,00,12.20
2019,07,12,07,01,12.30
2019,07,12,07,02,12.30
2019,07,12,07,03,12.30
2019,07,12,07,04,12.30
2019,07,12,07,05,12.40
2019,07,12,07,06,12.40
2019,07,12,07,07,12.40
2019,07,12,07,08,12.50
2019,07,12,07,09,12.50
2019,07,12,07,10,12.50
2019,07,12,07,11,12.60
2019,07,12,07,12,12.60
2019,07,12,07,13,12.60
2019,07,12,07,14,12.60
2019,07,12,07,15,12.60
2019,07,12,07,16,12.60
2019,07,12,07,17,12.70
2019,07,12,07,18,12.70
2019,07,12,07,19,12.70
2019,07,12,07,20,12.70
2019,07,12,07,21,12.70
2019,07,12,07,22,12.70
2019,07,12,07,23,12.70
2019,07,12,07,24,12.80
2019,07,12,07,25,12.80
2019,07,12,07,26,12.80
2019,07,12,07,27,12.80
2019,07,12,07,28,12.80
2019,07,12,07,29,12.90
2019,07,12,07,30,12.90
2019,07,12,07,31,12.90
2019,07,12,07,32,12.90
2019,07,12,07,33,13.00
2019,07,12,07,34,13.00
2019,07,12,07,35,13.10
2019,07,12,07,36,13.10
2019,07,12,07,37,13.10
2019,07,12,07,38,13.10
2019,07,12,07,39,13.20
2019,07,12,07,40,13.20
2019,07,12,07,41,13.20
2019,07,12,07,42,13.20
2019,07,12,07,43,13.30
2019,07,12,07,44,13.30
2019,07,12,07,45,13.30
2019,07,12,07,46,13.30
2019,07,12,07,47,13.40
2019,07,12,07,48,13.40
2019,07,12,07,49,13.40
2019,07,12,07,50,13.50
2019,07,12,07,51,13.50
2019,07,12,07,52,13.50
2019,07,12,07,53,13.50
2019,07,12,07,54,13.50
2019,07,12,07,55,13.50
2019,07,12,07,56,13.60
2019,07,12,07,57,13.60
2019,07,12,07,58,13.60
2019,07,12,07,59,13.60
2019,07,12,08,00,13.60
2019,07,12,08,01,13.60
2019,07,12,08,02,13.60
2019,07,12,08,03,13.70
2019,07,12,08,04,13.70
2019,07,12,08,05,13.70
2019,07,12,08,06,13.70
2019,07,12,08,07,13.80
2019,07,12,08,08,13.80
2019,07,12,08,09,13.80
2019,07,12,08,10,13.90
2019,07,12,08,11,13.90
2019,07,12,08,12,13.90
2019,07,12,08,13,13.90
2019,07,12,08,14,13.90
2019,07,12,08,15,13.90
2019,07,12,08,16,14.00
2019,07,12,08,17,14.00
2019,07,12,08,18,14.00
2019,07,12,08,19,14.00
2019,07,12,08,20,14.10
2019,07,12,08,21,14.10
2019,07,12,08,22,14.10
2019,07,12,08,23,14.10
2019,07,12,08,24,14.10
2019,07,12,08,25,14.20
2019,07,12,08,26,14.20
2019,07,12,08,27,14.20
2019,07,12,08,28,14.20
2019,07,12,08,29,14.20
2019,07,12,08,30,14.20
2019,07,12,08,31,14.20
2019,07,12,08,32,14.20
2019,07,12,08,33,14.30
2019,07,12,08,34,14.30
2019,07,12,08,35,14.30
2019,07,12,08,36,14.30
2019,07,12,08,37,14.30
2019,07,12,08,38,14.30
2019,07,12,08,39,14.30
2019,07,12,08,40,14.30
2019,07,12,08,41,14.40
2019,07,12,08,42,14.40
2019,07,12,08,43,14.40
2019,07,12,08,44,14.40
2019,07,12,08,45,14.50
2019,07,12,08,46,14.50
2019,07,12,08,47,14.60
2019,07,12,08,48,14.60
2019,07,12,08,49,14.60
2019,07,12,08,50,14.60
2019,07,12,08,51,14.60
2019,07,12,08,52,14.70
2019,07,12,08,53,14.70
2019,07,12,08,54,14.70
2019,07,12,08,55,14.70
2019,07,12,08,56,14.70
2019,07,12,08,57,14.70
2019,07,12,08,58,14.70
2019,07,12,08,59,14.70
2019,07,12,09,00,14.80
2019,07,12,09,01,14.80
2019,07,12,09,02,14.90
2019,07,12,09,03,15.00
2019,07,12,09,04,15.00
2019,07,12,09,05,15.00
2019,07,12,09,06,15.00
2019,07,12,09,07,15.00
2019,07,12,09,08,15.10
2019,07,12,09,09,15.30
2019,07,12,09,10,15.30
2019,07,12,09,11,15.30
2019,07,12,09,12,15.40
2019,07,12,09,13,15.40
2019,07,12,09,14,15.40
2019,07,12,09,15,15.50
2019,07,12,09,16,15.60
2019,07,12,09,17,15.60
2019,07,12,09,18,15.60
2019,07,12,09,19,15.70
2019,07,12,09,20,15.70
2019,07,12,09,21,15.70
2019,07,12,09,22,15.80
2019,07,12,09,23,15.80
2019,07,12,09,24,15.80
2019,07,12,09,25,15.80
2019,07,12,09,26,15.80
2019,07,12,09,27,15.80
2019,07,12,09,28,15.80
2019,07,12,09,29,15.80
2019,07,12,09,30,15.90
2019,07,12,09,31,15.90
2019,07,12,09,32,16.00
2019,07,12,09,33,16.00
2019,07,12,09,34,16.10
2019,07,12,09,35,16.20
2019,07,12,09,36,16.20
2019,07,12,09,37,16.20
2019,07,12,09,38,16.20
2019,07,12,09,39,16.20
2019,07,12,09,40,16.20
2019,07,12,09,41,16.30
2019,07,12,09,42,16.30
2019,07,12,09,43,16.30
2019,07,12,09,44,16.30
2019,07,12,09,45,16.30
2019,07,12,09,46,16.40
2019,07,12,09,47,16.40
2019,07,12,09,48,16.40
2019,07,12,09,49,16.40
2019,07,12,09,50,16.40
2019,07,12,09,51,16.50
2019,07,12,09,52,16.50
2019,07,12,09,53,16.50
2019,07,12,09,54,16.50
2019,07,12,09,55,16.60
2019,07,12,09,56,16.60
2019,07,12,09,57,16.70
2019,07,12,09,58,16.70
2019,07,12,09,59,16.80
2019,07,12,10,00,16.90
2019,07,12,10,01,17.00
2019,07,12,10,02,17.10
2019,07,12,10,03,17.20
2019,07,12,10,04,17.20
2019,07,12,10,05,17.30
2019,07,12,10,06,17.40
2019,07,12,10,07,17.50
2019,07,12,10,08,17.60
2019,07,12,10,09,17.60
2019,07,12,10,10,17.70
2019,07,12,10,11,17.80
2019,07,12,10,12,17.90
2019,07,12,10,13,18.00
2019,07,12,10,14,18.00
2019,07,12,10,15,18.10
2019,07,12,10,16,18.20
2019,07,12,10,17,18.20
2019,07,12,10,18,18.20
2019,07,12,10,19,18.30
2019,07,12,10,20,18.30
2019,07,12,10,21,18.30
2019,07,12,10,22,18.30
2019,07,12,10,23,18.40
2019,07,12,10,24,18.40
2019,07,12,10,25,18.40
2019,07,12,10,26,18.50
2019,07,12,10,27,18.50
2019,07,12,10,28,18.50
2019,07,12,10,29,18.50
2019,07,12,10,30,18.40
2019,07,12,10,31,18.40
2019,07,12,10,32,18.40
2019,07,12,10,33,18.40
2019,07,12,10,34,18.30
2019,07,12,10,35,18.20
2019,07,12,10,36,18.20
2019,07,12,10,37,18.10
2019,07,12,10,38,18.10
2019,07,12,10,39,18.10
2019,07,12,10,40,18.10
2019,07,12,10,41,18.10
2019,07,12,10,42,18.10
2019,07,12,10,43,18.20
2019,07,12,10,44,18.30
2019,07,12,10,45,18.40
2019,07,12,10,46,18.50
2019,07,12,10,47,18.60
2019,07,12,10,48,18.70
2019,07,12,10,49,18.70
2019,07,12,10,50,18.80
2019,07,12,10,51,18.80
2019,07,12,10,52,18.90
2019,07,12,10,53,18.90
2019,07,12,10,54,18.90
2019,07,12,10,55,18.90
2019,07,12,10,56,19.00
2019,07,12,10,57,19.00
2019,07,12,10,58,19.00
2019,07,12,10,59,19.10
2019,07,12,11,00,19.10
2019,07,12,11,01,19.10
2019,07,12,11,02,19.20
2019,07,12,11,03,19.40
2019,07,12,11,04,19.60
2019,07,12,11,05,19.70
2019,07,12,11,06,19.90
2019,07,12,11,07,20.00
2019,07,12,11,08,20.20
2019,07,12,11,09,20.40
2019,07,12,11,10,20.40
2019,07,12,11,11,20.30
2019,07,12,11,12,20.30
2019,07,12,11,13,20.20
2019,07,12,11,14,20.10
2019,07,12,11,15,20.00
2019,07,12,11,16,20.00
2019,07,12,11,17,19.90
2019,07,12,11,18,19.90
2019,07,12,11,19,20.00
2019,07,12,11,20,20.00
2019,07,12,11,21,20.10
2019,07,12,11,22,20.30
2019,07,12,11,23,20.40
2019,07,12,11,24,20.50
2019,07,12,11,25,20.60
2019,07,12,11,26,20.70
2019,07,12,11,27,20.80
2019,07,12,11,28,20.80
2019,07,12,11,29,20.90
2019,07,12,11,30,20.90
2019,07,12,11,31,21.00
2019,07,12,11,32,21.00
2019,07,12,11,33,21.10
2019,07,12,11,34,21.20
2019,07,12,11,35,21.30
2019,07,12,11,36,21.40
2019,07,12,11,37,21.50
2019,07,12,11,38,21.50
2019,07,12,11,39,21.50
2019,07,12,11,40,21.50
2019,07,12,11,41,21.40
2019,07,12,11,42,21.40
2019,07,12,11,43,21.30
2019,07,12,11,44,21.30
2019,07,12,11,45,21.20
2019,07,12,11,46,21.20
2019,07,12,11,47,21.20
2019,07,12,11,48,21.10
2019,07,12,11,49,21.10
2019,07,12,11,50,21.10
2019,07,12,11,51,21.20
2019,07,12,11,52,21.20
2019,07,12,11,53,21.20
2019,07,12,11,54,21.30
2019,07,12,11,55,21.30
2019,07,12,11,56,21.40
2019,07,12,11,57,21.40
2019,07,12,11,58,21.40
2019,07,12,11,59,21.40
2019,07,12,12,00,21.50
2019,07,12,12,01,21.70
2019,07,12,12,02,21.90
2019,07,12,12,03,22.10
2019,07,12,12,04,22.30
2019,07,12,12,05,22.40
2019,07,12,12,06,22.50
2019,07,12,12,07,22.70
2019,07,12,12,08,22.70
2019,07,12,12,09,22.70
2019,07,12,12,10,23.00
2019,07,12,12,11,23.20
2019,07,12,12,12,23.20
2019,07,12,12,13,23.40
2019,07,12,12,14,23.40
2019,07,12,12,15,23.50
2019,07,12,12,16,23.40
2019,07,12,12,17,23.20
2019,07,12,12,18,22.90
2019,07,12,12,19,22.70
2019,07,12,12,20,22.60
2019,07,12,12,21,22.70
2019,07,12,12,22,22.80
2019,07,12,12,23,22.80
2019,07,12,12,24,22.90
2019,07,12,12,25,23.10
2019,07,12,12,26,23.10
2019,07,12,12,27,23.10
2019,07,12,12,28,23.00
2019,07,12,12,29,22.90
2019,07,12,12,30,22.80
2019,07,12,12,31,22.70
2019,07,12,12,32,22.60
2019,07,12,12,33,22.60
2019,07,12,12,34,22.70
2019,07,12,12,35,22.70
2019,07,12,12,36,22.80
2019,07,12,12,37,22.90
2019,07,12,12,38,23.00
2019,07,12,12,39,23.10
2019,07,12,12,40,23.30
2019,07,12,12,41,23.30
2019,07,12,12,42,23.30
2019,07,12,12,43,23.30
2019,07,12,12,44,23.30
2019,07,12,12,45,23.30
2019,07,12,12,46,23.40
2019,07,12,12,47,23.50
2019,07,12,12,48,23.60
2019,07,12,12,49,23.70
2019,07,12,12,50,23.90
2019,07,12,12,51,24.00
2019,07,12,12,52,24.20
2019,07,12,12,53,24.30
2019,07,12,12,54,24.40
2019,07,12,12,55,24.50
2019,07,12,12,56,24.50
2019,07,12,12,57,24.60
2019,07,12,12,58,24.70
2019,07,12,12,59,24.70
2019,07,12,13,00,24.70
2019,07,12,13,01,24.70
2019,07,12,13,02,24.70
2019,07,12,13,03,24.70
2019,07,12,13,04,24.60
2019,07,12,13,05,24.60
2019,07,12,13,06,24.50
2019,07,12,13,07,24.50
2019,07,12,13,08,24.50
2019,07,12,13,09,24.50
2019,07,12,13,10,24.50
2019,07,12,13,11,24.40
2019,07,12,13,12,24.30
2019,07,12,13,13,24.30
2019,07,12,13,14,24.30
2019,07,12,13,15,24.40
2019,07,12,13,16,24.40
2019,07,12,13,17,24.40
2019,07,12,13,18,24.40
2019,07,12,13,19,24.30
2019,07,12,13,20,24.30
2019,07,12,13,21,24.30
2019,07,12,13,22,24.40
2019,07,12,13,23,24.50
2019,07,12,13,24,24.60
2019,07,12,13,25,24.70
2019,07,12,13,26,24.80
2019,07,12,13,27,24.90
2019,07,12,13,28,24.90
2019,07,12,13,29,24.90
2019,07,12,13,30,24.70
2019,07,12,13,31,24.70
2019,07,12,13,32,24.70
2019,07,12,13,33,24.70
2019,07,12,13,34,24.60
2019,07,12,13,35,24.60
2019,07,12,13,36,24.60
2019,07,12,13,37,24.50
2019,07,12,13,38,24.50
2019,07,12,13,39,24.50
2019,07,12,13,40,24.40
2019,07,12,13,41,24.40
2019,07,12,13,42,24.30
2019,07,12,13,43,24.30
2019,07,12,13,44,24.30
2019,07,12,13,45,24.30
2019,07,12,13,46,24.30
2019,07,12,13,47,24.30
2019,07,12,13,48,24.50
2019,07,12,13,49,24.50
2019,07,12,13,50,24.60
2019,07,12,13,51,24.70
2019,07,12,13,52,24.70
2019,07,12,13,53,24.60
2019,07,12,13,54,24.60
2019,07,12,13,55,24.60
2019,07,12,13,56,24.60
2019,07,12,13,57,24.60
2019,07,12,13,58,24.50
2019,07,12,13,59,24.60
2019,07,12,14,00,24.60
2019,07,12,14,01,24.50
2019,07,12,14,02,24.50
2019,07,12,14,03,24.50
2019,07,12,14,04,24.50
2019,07,12,14,05,24.50
2019,07,12,14,06,24.60
2019,07,12,14,07,24.80
2019,07,12,14,08,24.90
2019,07,12,14,09,24.90
2019,07,12,14,10,25.00
2019,07,12,14,11,25.20
2019,07,12,14,12,25.30
2019,07,12,14,13,25.30
2019,07,12,14,14,25.40
2019,07,12,14,15,25.40
2019,07,12,14,16,25.40
2019,07,12,14,17,25.50
2019,07,12,14,18,25.50
2019,07,12,14,19,25.60
2019,07,12,14,20,25.60
2019,07,12,14,21,25.60
2019,07,12,14,22,25.60
2019,07,12,14,23,25.70
2019,07,12,14,24,25.80
2019,07,12,14,25,25.80
2019,07,12,14,26,25.80
2019,07,12,14,27,25.90
2019,07,12,14,28,25.90
2019,07,12,14,29,25.90
2019,07,12,14,30,25.90
2019,07,12,14,31,25.80
2019,07,12,14,32,25.60
2019,07,12,14,33,25.50
2019,07,12,14,34,25.30
2019,07,12,14,35,25.10
2019,07,12,14,36,25.10
2019,07,12,14,37,25.20
2019,07,12,14,38,25.20
2019,07,12,14,39,25.30
2019,07,12,14,40,25.30
2019,07,12,14,41,25.40
2019,07,12,14,42,25.40
2019,07,12,14,43,25.30
2019,07,12,14,44,25.30
2019,07,12,14,45,25.30
2019,07,12,14,46,25.30
2019,07,12,14,47,25.30
2019,07,12,14,48,25.40
2019,07,12,14,49,25.40
2019,07,12,14,50,25.30
2019,07,12,14,51,25.30
2019,07,12,14,52,25.30
2019,07,12,14,53,25.20
2019,07,12,14,54,25.20
2019,07,12,14,55,25.20
2019,07,12,14,56,25.20
2019,07,12,14,57,25.20
2019,07,12,14,58,25.20
2019,07,12,14,59,25.20
2019,07,12,15,00,25.20
2019,07,12,15,01,25.30
2019,07,12,15,02,25.40
2019,07,12,15,03,25.40
2019,07,12,15,04,25.50
2019,07,12,15,05,25.60
2019,07,12,15,06,25.50
2019,07,12,15,07,25.50
2019,07,12,15,08,25.50
2019,07,12,15,09,25.60
2019,07,12,15,10,25.70
2019,07,12,15,11,25.70
2019,07,12,15,12,25.70
2019,07,12,15,13,25.70
2019,07,12,15,14,25.60
2019,07,12,15,15,25.60
2019,07,12,15,16,25.60
2019,07,12,15,17,25.50
2019,07,12,15,18,25.40
2019,07,12,15,19,25.40
2019,07,12,15,20,25.30
2019,07,12,15,21,25.10
2019,07,12,15,22,25.00
2019,07,12,15,23,24.90
2019,07,12,15,24,24.90
2019,07,12,15,25,24.90
2019,07,12,15,26,24.80
2019,07,12,15,27,24.80
2019,07,12,15,28,24.90
2019,07,12,15,29,24.90
2019,07,12,15,30,24.90
2019,07,12,15,31,24.90
2019,07,12,15,32,24.90
2019,07,12,15,33,24.90
2019,07,12,15,34,24.90
2019,07,12,15,35,24.80
2019,07,12,15,36,24.80
2019,07,12,15,37,24.70
2019,07,12,15,38,24.60
2019,07,12,15,39,24.50
2019,07,12,15,40,24.50
2019,07,12,15,41,24.50
2019,07,12,15,42,24.50
2019,07,12,15,43,24.50
2019,07,12,15,44,24.60
2019,07,12,15,45,24.70
2019,07,12,15,46,24.70
2019,07,12,15,47,24.70
2019,07,12,15,48,24.70
2019,07,12,15,49,24.80
2019,07,12,15,50,24.80
2019,07,12,15,51,24.90
2019,07,12,15,52,24.90
2019,07,12,15,53,25.10
2019,07,12,15,54,25.20
2019,07,12,15,55,25.30
2019,07,12,15,56,25.40
2019,07,12,15,57,25.50
2019,07,12,15,58,25.40
2019,07,12,15,59,25.30
2019,07,12,16,00,25.40
2019,07,12,16,01,25.40
2019,07,12,16,02,25.50
2019,07,12,16,03,25.50
2019,07,12,16,04,25.40
2019,07,12,16,05,25.30
2019,07,12,16,06,25.10
2019,07,12,16,07,25.00
2019,07,12,16,08,25.00
2019,07,12,16,09,25.00
2019,07,12,16,10,24.90
2019,07,12,16,11,24.90
2019,07,12,16,12,24.90
2019,07,12,16,13,24.90
2019,07,12,16,14,24.90
2019,07,12,16,15,24.80
2019,07,12,16,16,24.70
2019,07,12,16,17,24.50
2019,07,12,16,18,24.40
2019,07,12,16,19,24.30
2019,07,12,16,20,24.20
2019,07,12,16,21,24.00
2019,07,12,16,22,23.90
2019,07,12,16,23,23.80
2019,07,12,16,24,23.80
2019,07,12,16,25,23.70
2019,07,12,16,26,23.80
2019,07,12,16,27,23.80
2019,07,12,16,28,23.80
2019,07,12,16,29,23.80
2019,07,12,16,30,23.80
2019,07,12,16,31,23.80
2019,07,12,16,32,23.80
2019,07,12,16,33,23.80
2019,07,12,16,34,23.90
2019,07,12,16,35,23.90
2019,07,12,16,36,23.90
2019,07,12,16,37,24.00
2019,07,12,16,38,24.10
2019,07,12,16,39,24.10
2019,07,12,16,40,24.20
2019,07,12,16,41,24.20
2019,07,12,16,42,24.20
2019,07,12,16,43,24.30
2019,07,12,16,44,24.30
2019,07,12,16,45,24.20
2019,07,12,16,46,24.30
2019,07,12,16,47,24.30
2019,07,12,16,48,24.30
2019,07,12,16,49,24.40
2019,07,12,16,50,24.40
2019,07,12,16,51,24.40
2019,07,12,16,52,24.40
2019,07,12,16,53,24.50
2019,07,12,16,54,24.50
2019,07,12,16,55,24.60
2019,07,12,16,56,24.60
2019,07,12,16,57,24.60
2019,07,12,16,58,24.60
2019,07,12,16,59,24.60
2019,07,12,17,00,24.60
2019,07,12,17,01,24.50
2019,07,12,17,02,24.50
2019,07,12,17,03,24.30
2019,07,12,17,04,24.30
2019,07,12,17,05,24.20
2019,07,12,17,06,24.20
2019,07,12,17,07,24.30
2019,07,12,17,08,24.30
2019,07,12,17,09,24.30
2019,07,12,17,10,24.30
2019,07,12,17,11,24.20
2019,07,12,17,12,24.20
2019,07,12,17,13,24.20
2019,07,12,17,14,24.20
2019,07,12,17,15,24.20
2019,07,12,17,16,24.20
2019,07,12,17,17,24.30
2019,07,12,17,18,24.30
2019,07,12,17,19,24.40